Flag for Canada Weather past 2 weeks in St. John's, Newfoundland and Labrador, Canada

Now
36 °F

Light rain. Fog.


Feels Like: 26 °F
Forecast: N/A
Wind: 15 mph from Northeast

Location: St. John's

Current Time: Apr 26, 2015 at 8:49:56 PM

Latest Report: Apr 26, 2015 at 8:30 PM


Visibility: 1 mi

Pressure: 29.53 "Hg

Humidity: 100%

Dew point: 36 °F

Location of St. John'sLocation

Historic Weather in St. John's — Graph

°F

St. John's temperature yesterday

Maximum temperature yesterday: 41 °F (at 12:30 PM)
Minimum temperature yesterday: 30 °F (at 12:30 AM)
Average temperature yesterday: 36 °F

Past Weeks' High & Low Weather Summary

 TemperatureHumidityPressure
High52 °F (Apr 14, 12:30 PM)100% (Apr 11, 7:30 PM)30.34 "Hg (Apr 11, 7:30 PM)
Low19 °F (Apr 16, 7:30 PM)41% (Apr 13, 1:30 PM)29.34 "Hg (Apr 11, 7:30 PM)
Average32 °F83%29.91 "Hg
* Reported Apr 11 7:30 PM — Apr 26 7:30 PM, St. John's, Weather by CustomWeather, © 2015

Note: Actual official high and low records may vary slightly from our data, if they occured in-between our weather recording intervals... More about our weather records

Advertising

St. John's weather history for previous 24 hours

 ConditionsComfort  
Time TempWeatherWind HumidityBarometerVisibility
7:30 PM
Sun, Apr 26
36 °FLight rain. Fog.15 mph100%29.56 "Hg0 mi
6:30 PM37 °FDrizzle. Fog.21 mph100%29.56 "Hg0 mi
5:30 PM39 °FDrizzle. Fog.30 mph100%29.55 "Hg0 mi
4:30 PM39 °FDrizzle. Fog.23 mph100%29.56 "Hg0 mi
3:30 PM37 °FDrizzle. Fog.21 mph100%29.58 "Hg0 mi
2:30 PM39 °FLight rain. Fog.23 mph100%29.58 "Hg1 mi
1:30 PM37 °FLight rain. Fog.20 mph100%29.59 "Hg0 mi
12:30 PM37 °FDrizzle. Fog.20 mph100%29.58 "Hg0 mi
11:30 AM39 °FDrizzle. Fog.24 mph100%29.58 "Hg0 mi
10:30 AM39 °FDrizzle. Fog.25 mph100%29.58 "Hg0 mi
9:30 AM39 °FDrizzle. Fog.26 mph100%29.56 "Hg0 mi
8:30 AM39 °FDrizzle. Fog.21 mph100%29.57 "Hg0 mi
7:30 AM39 °FLight rain. Fog.23 mph100%29.56 "Hg0 mi
6:30 AM39 °FLight rain. Fog.18 mph100%29.56 "Hg0 mi
5:30 AM39 °FLight rain. Fog.18 mph100%29.56 "Hg0 mi
4:30 AM41 °FRain. Fog.14 mph100%29.57 "Hg1 mi
3:30 AM34 °FLight rain. Fog.12 mph100%29.62 "Hg1 mi
2:30 AM32 °FLight rain. Fog.13 mph100%29.64 "Hg1 mi
1:30 AM32 °FLight freezing rain. Ice fog.15 mph100%29.70 "Hg1 mi
12:30 AM32 °FLight rain. Fog.9 mph100%29.70 "Hg1 mi
11:30 PM
Sat, Apr 25
36 °FMostly cloudy.8 mph93%29.72 "Hg15 mi
10:30 PM36 °FPassing clouds.5 mph100%29.72 "Hg15 mi
9:30 PM36 °FPassing clouds.5 mph100%29.74 "Hg15 mi
8:30 PM37 °FPartly sunny.9 mph93%29.73 "Hg15 mi
Weather by CustomWeather, © 2015

See weather overviewHow to use our weather pages